This is the latest recevied weather packets stored in our database for station/object LZ1HCO-25. If no packets are shown the sender has not sent any weather packets the latest 10 day(s).
| Time | Temp. | Humidity | Pressure | Rain* | Wind** | Luminosity | Snow |
|---|---|---|---|---|---|---|---|
| 1778162279 | 20.56° C | 90% | 968 hPa | - | - | 0 W/m² | - |
| 1778161967 | 20.56° C | 89% | 968 hPa | - | - | 0 W/m² | - |
| 1778161656 | 20.56° C | 89% | 968 hPa | - | - | 0 W/m² | - |
| 1778161345 | 20.56° C | 92% | 969 hPa | - | - | 0 W/m² | - |
| 1778161033 | 20.56° C | 97% | 969 hPa | - | - | 0 W/m² | - |
| 1778160722 | 20° C | 99% | 968 hPa | - | - | 0 W/m² | - |
| 1778160411 | 20.56° C | 99% | 969 hPa | - | - | 0 W/m² | - |
| 1778160099 | 20° C | 99% | 969 hPa | - | - | 0 W/m² | - |
| 1778159788 | 20.56° C | 99% | 969 hPa | - | - | 0 W/m² | - |
| 1778159477 | 21.11° C | 99% | 969 hPa | - | - | 0 W/m² | - |
| 1778159165 | 20° C | 99% | 969 hPa | - | - | 0 W/m² | - |
| 1778158854 | 20.56° C | 99% | 969 hPa | - | - | 0 W/m² | - |
| 1778158542 | 20.56° C | 82% | 969 hPa | - | - | 0 W/m² | - |
| 1778158231 | 21.11° C | 84% | 969 hPa | - | - | 0 W/m² | - |
| 1778157920 | 21.11° C | 85% | 969 hPa | - | - | 0 W/m² | - |
| 1778157608 | 21.11° C | 86% | 969 hPa | - | - | 0 W/m² | - |
| 1778157466 | 21.11° C | 87% | 969 hPa | - | - | 0 W/m² | - |
| 1778157155 | 20.56° C | 89% | 969 hPa | - | - | 0 W/m² | - |
| 1778156843 | 20.56° C | 97% | 969 hPa | - | - | 0 W/m² | - |
| 1778156532 | 20° C | 99% | 969 hPa | - | - | 0 W/m² | - |
| 1778156220 | 20° C | 99% | 969 hPa | - | - | 0 W/m² | - |
| 1778155909 | 20° C | 99% | 969 hPa | - | - | 0 W/m² | - |
| 1778155598 | 20° C | 99% | 969 hPa | - | - | 0 W/m² | - |
| 1778155286 | 20° C | 99% | 969 hPa | - | - | 0 W/m² | - |
| 1778154975 | 19.44° C | 99% | 969 hPa | - | - | 0 W/m² | - |
* Rain since midnight (hover to see other rain measurements)
** Current wind speed in m/s (hover to see current wind gust speed)